This demonstration page uses our WeatherBlox Daily Observations layout. Learn more.

Left ArrowRight Arrow

41.86663, -103.66717

Hourly Observations for October 1, 2022

Temp ( °F °C ) Dew Point ( °F °C ) Humidity (%) Winds ( mph kmh ) Pressure ( in mb ) Visibility ( mi km ) Precip ( " mm )
12:53 am 00:53 Cloudy with Light Rain 59 15 53 11.7 81 81 Calm 29.89 1012 10 16 0.01 0.25
1:53 am 01:53 Mostly Cloudy 57 13.9 53 11.7 87 87 WNW 7 11 29.89 1012 10 16 0.01 0.13
2:53 am 02:53 Clear 56 13.3 52 11.1 87 87 WNW 7 11 29.89 1012 10 16 0.00 0.00
3:53 am 03:53 Clear 55 12.8 52 11.1 89 89 NW 3 6 29.90 1013 10 16 0.00 0.00
4:53 am 04:53 Clear 54 12.2 51 10.6 90 90 Calm 29.92 1013 10 16 0.00 0.00
5:53 am 05:53 Clear 54 12.2 51 10.6 90 90 Calm 29.97 1015 10 16 0.00 0.00
6:24 am 06:24 Clear with Mist and Fog 51 10.6 49 9.4 92 92 WNW 3 6 30.01 1016 2 3 0.00 0.00
6:32 am 06:32 Clear with Mist and Fog 51 10.6 49 9.4 92 92 N 3 6 30.01 1016 3 5 0.00 0.00
6:53 am 06:53 Sunny 52 11.1 50 10 93 93 WNW 6 9 29.99 1016 10 16 0.00 0.00
7:53 am 07:53 Sunny 56 13.3 52 11.1 87 87 W 8 13 30.01 1016 10 16 0.00 0.00
8:53 am 08:53 Mostly Sunny 58 14.4 54 12.2 87 87 NW 3 6 30.01 1016 10 16 0.00 0.00
9:53 am 09:53 Mostly Sunny 58 14.4 54 12.2 87 87 WNW 9 15 30.03 1017 10 16 0.00 0.00
10:53 am 10:53 Sunny 64 17.8 54 12.2 70 70 NW 9 15 30.02 1017 10 16 0.00 0.00
11:53 am 11:53 Sunny 68 20 52 11.1 57 57 VRB 3 6 29.99 1016 10 16 0.00 0.00
12:53 pm 12:53 Sunny 69 20.6 53 11.7 57 57 Calm 29.98 1015 10 16 0.00 0.00
1:53 pm 13:53 Sunny 73 22.8 51 10.6 46 46 Calm 29.96 1015 10 16 0.00 0.00
2:53 pm 14:53 Sunny 74 23.3 50 10 43 43 SE 5 7 29.95 1014 10 16 0.00 0.00
3:53 pm 15:53 Sunny 74 23.3 48 8.9 40 40 S 6 9 29.94 1014 10 16 0.00 0.00
4:53 pm 16:53 Partly Cloudy 73 22.8 46 7.8 38 38 W 5 7 29.96 1015 10 16 0.00 0.00
5:53 pm 17:53 Sunny 71 21.7 49 9.4 45 45 N 3 6 29.97 1015 10 16 0.00 0.00
6:53 pm 18:53 Clear 66 18.9 52 11.1 61 61 NNE 6 9 29.98 1015 10 16 0.00 0.00
7:53 pm 19:53 Mostly Clear 66 18.9 51 10.6 59 59 ENE 6 9 29.99 1016 10 16 0.00 0.00
8:53 pm 20:53 Cloudy 63 17.2 56 13.3 78 78 Calm 30.03 1017 10 16 0.01 0.25
9:53 pm 21:53 Partly Cloudy 61 16.1 50 10 67 67 S 7 11 30.06 1018 10 16 0.00 0.00
10:53 pm 22:53 Clear 55 12.8 50 10 83 83 Calm 30.04 1017 10 16 0.00 0.00
11:53 pm 23:53 Clear 54 12.2 49 9.4 83 83 Calm 30.04 1017 10 16 0.00 0.00

Powered by AerisWeather